CZ-4B DEB, 35571

Orbit data source: Space-Track

CZ-4B DEB, 35571 is space debris in SSO originally from a launch on Sat, 25 Oct 2008 UTC launched from the Taiyaun Space Center, China (TSC). Debris objects in space refer to the collection of defunct objects orbiting the Earth. Examples of debris include non-operational satellites, rocket bodies, and fragments generated from explosions, collisions, or faulty payload assembly.

Loading next visibility...
Identifier
35571, 2008-053G
Orbit
SSO
Country
Flag of CNCN / PRC
Related business
Manufacturer
DFH
Mission
Spacecraft
Bus & Motor
Unknown
Mass
Unknown
Launch date (UTC)
2008-10-25 (18 years ago)
Launch vehicle
Unknown
Launch site
Taiyaun Space Center, China (TSC)
Object type
Payload
Rocket body
Debris
Shape & HBR
Unknown shape, 0.1 m
Radar Cross Section
Small (<0.1 m²)

Expand to show TLE details & history
Last TLE update: 2 days ago

TLE from 2 days ago
0 CZ-4B DEB
1 35571U 08053G   26171.33550183  .00009309  00000-0  85287-3 0  9996
2 35571  97.6040 198.2011 0099726  56.7568 304.3160 14.91360013933012
Epoch: 2026-06-20T08:03Z
TLE epoch observation values (Epoch: 2026-06-20T08:03:07.358Z)
Latitude
-0.00001°
Longitude
168.86884°
Altitude
558.012 km
Speed
7.604 km/s
True Right ascension
13h 12m 48s
True Declination
0° 00' 00"
Sunlit
Object was in daylight at epoch
Visualization orbit readout
Latitude
Unknown
Longitude
Unknown
Altitude
Unknown
Speed
Unknown
Apparent Right ascension
Unknown
Apparent Declination
Unknown
Sunlit
N/A
Visualization observer readout
Local Sidereal Time
23:07:50
Azimuth
Unknown
Elevation
Unknown
Doppler factor
Unknown
Orbital elements
Apogee altitude
660.204 km
Perigee altitude
521.209 km
Semi-major axis
6,968.843 km
Eccentricity
0.00997
Inclination
97.604°
RAAN
198.2011°
Arg. of periapsis
56.7568°
True anomaly
303.3655°
Mean anomaly
304.316°
Eccentric anomaly
303.84142°
Mean motion
3.7308 °/min
Orbital period
96.49 mins
BSTAR
0.00085287
Loading maneuver chart data...
Computing Atmospheric mass density...
Loading historical data...
Loading historical data...
Loading historical data...
Loading historical data...
Loading historical data...
Loading historical data...
Loading historical data...

Documentation

Showing up to 5 results
|